Location: Fort Worth, Tx
(32.7431°N, 97.3695°W)
Time: 10:02:29
(UTC-04:00)

Explorer 11/Cluster Stage 4 - Pass Details

Date: 27 February 2024
Orbit: 465 x 1219 km, 28.8° (Epoch: 24 April)

Event Time Altitude Azimuth Distance (km) Brightness Sun altitude
Exits shadow 06:05:09 39° 213° (SSW) 1,469 7.6 -24.9°
Maximum altitude 06:05:42 40° 201° (SSW) 1,438 7.6 -24.8°
Drops below altitude 10° 06:11:23 10° 134° (SE) 2,508 9.7 -23.6°
Sets 06:13:51 0° 126° (SE) 3,322 10.5 -23.1°
